SCP
0 0 0 0 0 0 0 0 0 0 0 0 0 0 0 0 0 0 0 0 0 0 0 0 0 0 0 0 0 0 0 0 0 0 0 0 0 0 0 0 0 0 0
0 0 0 0 0 0 0 0 0 0 0 0 0 0 0 0 0 0 0 0 0 0 0 0 0 0 0 0 0 0 0 0 0 0 0 0 0 0 0 0 0 0 0
0 0 0 0 0 0 0 0 0 0 0 0 0 0 0 0 0 0 0 0 0 0 0 0 0 0 0 0 0 0 -0 0 0 0 0 0 0 0 0 0 0 0 0
0 0 0 0 0 0 0 0 0 0 0 0 0 0 0 0 0 0 0 0 0 0 0 0 0 0 0 0 0 0 0 -0 0 0 0 0 0 0 0 0 0 0 0
0 0 0 0 0 0 0 0 0 0 0 0 0 0 0 0 0 0 0 0 0 -0 -0 0 0 0 0 0 0 0 -0 0 0 0 0 0 0 0 0 0 0 0 0
0 0 0 0 0 0 0 0 0 0 0 0 0 0 0 0 0 0 0 -0 -0 0 -0 0 0 0 0 0 0 0 0 0 0 0 0 0 0 0 0 0 0 0 0
0 0 0 0 0 0 0 0 0 0 0 0 0 0 0 0 0 0 0 0 0 0 0 0 0 0 0 0 -0 -0 0 0 -0 -0 0 0 0 0 0 0 0 0 0
0 0 0 0 0 0 0 0 0 0 0 0 0 0 0 0 0 0 0 0 0 0 -0 -0 0 -0 0 0 0 0 0 0 0 -0 0 0 0 0 0 0 0 0 0
0 0 0 0 0 0 0 0 0 0 0 0 0 0 0 0 0 0 0 0 0 0 0 0 0 0 -0 0 0 0 0 0 0 -0 -0 0 0 0 0 0 0 0 0
0 0 0 0 0 0 0 0 0 0 0 0 0 0 0 0 0 0 0 0 0 0 0 0 0 0 0 0 0 0 0 0 0 0 0 0 0 0 0 0 0 0 -0
0 0 0 0 0 0 0 0 0 0 0 0 0 0 0 0 0 0 0 0 0 0 0 0 0 0 0 0 0 0 0 0 0 0 0 0 0 0 0 0 0 -0 0
0 0 0 0 0 0 0 0 0 0 0 0 0 0 0 0 0 0 0 0 0 0 0 0 0 0 0 0 0 0 0 0 0 0 0 0 0 0 0 -0 0 -0 0
0 0 0 0 0 0 0 0 0 0 0 0 0 0 0 0 0 0 0 0 0 0 0 0 0 0 0 0 0 0 0 0 0 0 -0 -0 -0 0 0 0 0 0 0
0 0 0 0 0 0 0 0 0 0 0 0 0 0 0 0 0 0 0 0 0 0 0 0 0 0 0 0 0 0 0 0 0 0 0 0 0 0 0 0 0 0 0
0 0 0 0 0 0 0 0 0 0 0 0 0 0 0 0 0 0 0 0 0 0 0 0 0 0 0 0 0 0 0 0 0 0 0 0 0 0 0 0 0 0 0
0 0 0 0 0 0 0 0 0 0 0 0 0 0 0 0 0 0 0 0 0 0 0 0 0 0 0 0 0 0 0 0 0 0 0 0 0 0 0 0 0 0 0
0 0 0 0 0 0 0 0 0 0 0 0 0 -0 0 0 0 0 0 0 0 0 0 0 0 0 0 0 0 0 0 0 0 0 0 0 0 0 0 0 0 0 0
0 0 0 0 0 0 0 0 0 0 -0 0 -0 0 -0 0 0 0 0 0 0 0 0 0 0 0 0 0 0 0 0 0 0 0 0 0 0 0 0 0 0 0 0
0 0 0 0 0 0 0 0 0 0 -0 0 -0 0 0 0 0 0 0 0 0 0 0 0 0 0 0 0 0 0 0 0 0 0 0 0 0 0 0 0 0 0 0
0 0 0 0 0 0 -0 0 0 0 0 0 -0 0 0 0 0 0 0 0 0 0 0 0 0 0 0 0 0 0 0 0 0 0 0 0 0 0 0 0 0 0 0
0 0 0 0 0 0 0 -0 0 -0 0 0 -0 0 0 0 0 0 0 0 0 0 0 0 0 0 0 0 0 0 0 0 0 0 0 0 0 0 0 0 0 0 0
0 0 0 0 0 0 0 -0 0 -0 -0 0 -0 -0 -0 0 0 0 0 0 0 0 0 0 0 0 0 0 0 0 0 0 0 0 0 0 0 -0 0 0 0 0 0
0 0 0 0 0 0 0 0 0 -0 0 0 -0 0 0 0 0 0 0 0 0 0 0 0 0 0 0 0 0 0 0 0 0 0 0 0 0 0 0 0 0 0 0
0 0 0 0 0 0 0 0 0 0 0 0 -0 -0 0 -0 0 0 0 0 0 0 -0 -0 0 0 0 0 0 0 0 0 0 0 0 0 0 0 0 0 0 0 0
0 0 0 0 0 0 0 0 0 0 0 -0 -0 -0 -0 -0 0 0 0 0 0 -0 -0 -0 -0 -0 0 0 -0 -0 -0 -0 0 -0 0 0 0 0 0 0 0 0 0
0 0 0 0 0 0 0 0 0 0 0 -0 -0 -0 -0 -0 -0 0 0 -0 -0 -0 -0 -0 -0 -0 -0 -0 0 0 -0 -0 0 0 0 0 0 0 0 0 0 0 0
Wind_Speed_500mb
6 5 11 16 17 21 22 25 28 35 46 55 57 44 40 38 33 33 33 32 32 31 29 27 28 27 27 28 28 29 28 24 24 25 23 23 30 27 26 28 36 36 39
4 4 9 17 17 16 18 23 34 44 51 47 46 47 46 40 42 37 37 31 29 31 32 28 25 27 32 30 30 29 28 27 23 21 20 17 13 17 25 31 36 36 39
5 4 11 12 10 14 23 34 43 47 43 47 50 45 42 39 36 42 41 38 31 29 30 31 28 26 28 28 28 31 31 26 23 21 19 13 11 19 16 31 36 38 33
4 3 6 9 16 24 31 41 46 39 41 49 51 47 43 42 45 41 43 39 31 29 29 29 28 27 29 30 24 22 23 24 23 18 21 25 11 12 16 27 39 40 41
3 4 9 14 20 27 37 41 35 32 41 48 50 45 42 34 39 39 39 34 31 35 26 22 17 13 21 16 13 13 18 17 18 16 16 16 16 19 19 35 28 33 30
4 5 10 15 24 33 40 33 32 35 38 47 47 41 41 36 37 37 31 30 32 40 32 19 9 5 6 9 16 18 16 13 10 11 10 11 17 15 18 33 30 19 22
5 2 7 17 29 37 36 27 32 37 41 41 44 42 37 35 33 33 28 36 35 35 37 30 20 21 16 13 8 10 11 7 5 4 15 11 10 19 19 18 27 14 11
6 4 9 21 31 36 29 26 34 35 40 37 40 39 36 36 30 25 32 29 31 32 33 37 23 24 12 18 17 12 5 1 9 18 22 18 18 16 19 11 12 9 8
7 1 11 24 31 28 24 26 32 35 36 38 33 36 36 33 29 19 19 21 23 26 23 25 23 33 30 27 21 21 25 24 22 22 20 18 18 18 16 13 12 8 10
6 2 14 23 28 24 21 25 31 34 33 39 34 35 34 33 31 23 20 18 21 21 21 21 19 21 26 26 27 32 29 30 28 24 20 20 20 17 15 13 10 7 6
8 4 15 22 25 23 19 23 27 30 31 34 32 30 30 33 30 26 21 22 21 20 18 19 16 11 17 22 27 28 27 26 23 20 17 16 16 13 10 8 6 4 4
6 5 14 21 20 16 18 21 23 26 30 28 25 29 33 36 29 30 21 24 23 21 18 19 15 7 11 13 16 19 19 16 13 11 10 9 8 7 5 6 6 12 12
5 8 14 16 18 13 18 21 23 26 25 23 22 27 32 33 24 30 28 27 26 25 17 14 12 11 9 11 11 14 15 14 10 6 5 5 8 9 11 15 16 12 10
6 10 14 13 12 12 17 22 22 24 22 21 24 31 32 34 29 27 29 25 28 25 18 16 13 11 11 10 9 11 14 17 19 20 21 19 18 18 20 17 13 11 10
8 8 11 13 9 12 17 18 18 17 17 20 25 32 34 35 26 27 26 26 29 31 29 24 19 14 10 9 12 14 16 19 21 22 24 25 26 24 21 18 16 16 15
9 8 11 11 6 11 17 17 13 12 15 21 23 30 34 37 28 24 27 29 33 35 35 36 33 29 20 14 13 17 19 22 24 26 26 24 23 20 18 17 15 15 13
8 9 10 8 6 11 15 13 6 9 12 17 20 25 29 30 31 28 23 22 27 28 29 30 30 29 27 27 25 24 23 21 18 18 19 20 19 17 16 17 16 14 14
8 7 8 5 7 10 11 10 4 9 10 13 18 19 23 24 24 22 20 16 19 21 21 25 26 26 25 24 22 21 20 19 18 18 20 21 20 19 14 15 16 19 16
9 8 5 5 7 11 10 8 3 7 8 11 15 21 22 21 19 18 16 16 18 16 14 17 21 24 22 18 16 15 14 13 13 12 11 11 11 12 12 14 15 17 20
9 8 7 6 8 13 13 8 5 5 4 7 11 17 22 22 21 17 17 18 17 12 9 8 9 10 10 14 12 9 11 13 12 11 11 15 11 13 14 17 19 24 26
12 12 11 12 11 13 16 9 7 6 4 3 8 17 22 23 22 19 21 16 16 14 13 12 11 8 6 5 7 5 9 12 16 19 7 14 17 14 15 17 24 21 15
18 17 16 15 14 15 16 13 9 8 7 5 5 13 24 25 32 27 17 15 19 21 19 19 16 15 11 9 7 3 7 14 10 10 15 16 16 14 19 24 22 19 17
23 22 19 17 15 18 16 16 13 11 9 7 8 7 20 24 27 32 24 16 18 23 21 14 18 18 17 16 15 13 13 12 14 13 17 17 15 19 24 22 20 21 19
24 22 22 21 17 17 16 15 17 14 11 11 12 11 17 21 28 34 34 18 16 19 23 20 13 10 10 11 14 16 17 17 17 17 16 18 19 20 22 21 18 19 21
23 24 24 25 22 20 18 18 20 19 15 13 12 14 18 19 25 31 34 25 18 17 17 19 17 8 7 12 10 8 10 13 15 15 18 18 18 16 15 16 18 21 23
28 28 27 29 27 27 23 23 24 26 20 21 18 18 21 22 26 33 34 26 19 18 18 18 18 15 12 11 10 11 11 12 13 16 17 18 18 15 16 16 17 19 25
Wind_Direction_500mb
202 266 305 310 308 310 310 310 320 330 334 336 339 344 345 342 340 332 325 313 305 302 297 291 288 289 293 294 298 296 298 289 274 273 268 259 262 257 240 219 214 206 201
247 293 295 323 323 315 321 334 339 340 343 348 349 345 347 348 345 342 336 317 305 296 295 296 304 296 300 291 295 294 295 292 281 256 253 239 226 217 210 207 204 194 180
245 292 321 327 332 338 346 348 345 348 356 355 352 353 352 353 349 346 343 340 330 313 305 293 291 300 300 297 288 291 286 287 286 261 241 242 224 172 187 197 183 176 174
171 276 337 352 2 357 351 346 346 355 359 357 357 354 353 351 353 348 350 350 345 334 318 310 293 280 299 307 293 288 286 289 293 265 254 246 252 203 161 160 165 172 185
187 317 12 6 357 348 346 349 356 1 357 359 359 358 355 348 352 359 1 9 18 360 347 329 313 292 295 299 313 309 291 288 287 266 260 231 223 212 180 162 168 181 191
255 311 350 356 347 346 351 358 4 356 355 359 1 1 0 359 359 10 19 17 19 17 19 22 37 25 341 340 325 316 303 278 286 263 202 192 191 145 167 166 172 176 192
228 309 356 347 346 348 356 3 359 358 0 3 4 2 3 6 7 15 35 24 22 29 26 29 48 13 5 329 4 9 338 283 260 202 134 125 146 188 116 156 173 171 197
125 89 350 350 346 351 1 358 356 358 360 0 4 9 10 11 10 29 23 21 18 19 23 24 25 36 41 36 49 40 355 178 106 83 94 110 112 128 152 166 166 171 181
151 282 351 344 348 351 355 358 358 357 356 359 359 7 9 7 11 9 10 4 1 10 11 23 33 33 36 45 51 53 85 97 109 112 102 99 100 104 114 130 155 176 181
176 13 346 350 353 352 352 354 355 357 6 358 353 353 358 4 2 3 5 1 6 10 13 13 16 31 44 38 63 75 80 87 87 85 86 92 96 100 109 119 131 151 168
174 348 348 350 352 350 353 351 355 360 4 355 5 14 11 9 8 6 12 17 14 8 7 11 13 35 56 67 59 75 77 77 78 79 76 79 81 81 84 91 98 105 111
177 326 349 344 349 354 358 357 359 3 358 7 19 19 14 13 20 25 24 17 10 3 2 4 21 69 64 63 73 62 57 55 58 60 56 56 50 44 67 90 82 101 108
216 313 340 349 342 351 355 354 352 358 357 3 13 19 15 9 14 35 33 30 18 10 15 27 54 73 80 73 60 46 36 33 31 35 33 52 67 78 94 109 103 83 84
254 316 340 344 342 354 350 351 353 357 4 22 21 14 10 4 19 27 31 25 15 23 32 46 58 67 74 71 67 53 48 58 71 77 83 88 87 92 109 99 77 73 75
281 302 327 333 334 347 352 354 357 14 27 26 20 20 18 18 27 33 33 31 36 46 54 58 57 61 67 74 80 63 68 72 77 79 82 81 81 83 88 89 78 68 58
293 307 319 324 322 340 352 356 10 32 29 25 22 16 25 25 35 40 37 48 55 53 54 59 61 62 67 79 83 86 83 80 80 82 81 80 77 76 73 67 56 40 25
314 305 313 309 306 328 343 355 20 18 17 31 13 24 23 27 33 44 49 60 46 48 46 49 52 54 60 71 81 85 84 80 78 78 77 73 62 60 53 40 34 28 11
326 318 317 304 315 331 342 341 350 357 2 20 23 18 15 17 22 30 38 34 28 34 48 48 56 62 65 71 77 80 80 78 74 71 65 53 39 33 17 24 22 9 5
331 342 337 325 325 334 330 332 297 347 13 23 31 24 21 11 4 15 15 9 21 29 38 52 55 61 62 62 67 69 65 61 72 70 65 39 24 6 357 350 350 357 351
310 319 308 325 326 324 318 309 271 317 359 24 32 19 14 21 17 356 354 350 356 2 4 6 17 27 36 43 48 54 53 43 12 348 351 337 327 327 327 331 338 339 335
304 298 294 297 297 306 317 282 258 284 285 329 8 1 359 5 359 2 13 349 336 326 318 311 320 324 327 343 358 25 28 6 353 25 356 353 352 345 341 339 338 346 359
294 293 283 298 287 297 303 252 245 271 276 271 323 353 343 358 348 347 331 341 351 345 299 284 284 293 293 295 305 280 319 344 350 1 356 351 348 339 337 341 348 351 342
287 289 281 287 293 297 289 251 227 245 268 258 283 311 325 330 340 347 347 327 331 343 351 311 283 280 284 284 276 263 261 301 320 317 334 336 325 332 337 338 340 347 352
296 286 276 287 286 295 287 240 226 237 257 265 281 290 302 318 323 333 344 329 327 332 352 352 322 302 310 311 292 273 271 279 290 298 306 318 315 324 333 335 329 340 348
302 286 277 279 285 285 278 247 238 237 255 272 259 285 302 312 319 325 323 325 316 321 327 348 352 335 336 340 336 321 285 286 285 289 304 307 311 315 328 336 331 333 338
297 290 280 275 281 284 274 251 245 243 255 256 265 278 302 300 308 320 329 324 309 310 312 317 332 329 310 302 313 317 312 301 295 295 297 298 306 310 322 330 329 329 329
Wind_Speed_850mb
6 5 11 16 17 21 22 25 28 35 46 55 57 44 40 38 33 33 33 32 32 31 29 27 28 27 27 28 28 29 28 24 24 25 23 23 30 27 26 28 36 36 39
4 4 9 17 17 16 18 23 34 44 51 47 46 47 46 40 42 37 37 31 29 31 32 28 25 27 32 30 30 29 28 27 23 21 20 17 13 17 25 31 36 36 39
5 4 11 12 10 14 23 34 43 47 43 47 50 45 42 39 36 42 41 38 31 29 30 31 28 26 28 28 28 31 31 26 23 21 19 13 11 19 16 31 36 38 33
4 3 6 9 16 24 31 41 46 39 41 49 51 47 43 42 45 41 43 39 31 29 29 29 28 27 29 30 24 22 23 24 23 18 21 25 11 12 16 27 39 40 41
3 4 9 14 20 27 37 41 35 32 41 48 50 45 42 34 39 39 39 34 31 35 26 22 17 13 21 16 13 13 18 17 18 16 16 16 16 19 19 35 28 33 30
4 5 10 15 24 33 40 33 32 35 38 47 47 41 41 36 37 37 31 30 32 40 32 19 9 5 6 9 16 18 16 13 10 11 10 11 17 15 18 33 30 19 22
5 2 7 17 29 37 36 27 32 37 41 41 44 42 37 35 33 33 28 36 35 35 37 30 20 21 16 13 8 10 11 7 5 4 15 11 10 19 19 18 27 14 11
6 4 9 21 31 36 29 26 34 35 40 37 40 39 36 36 30 25 32 29 31 32 33 37 23 24 12 18 17 12 5 1 9 18 22 18 18 16 19 11 12 9 8
7 1 11 24 31 28 24 26 32 35 36 38 33 36 36 33 29 19 19 21 23 26 23 25 23 33 30 27 21 21 25 24 22 22 20 18 18 18 16 13 12 8 10
6 2 14 23 28 24 21 25 31 34 33 39 34 35 34 33 31 23 20 18 21 21 21 21 19 21 26 26 27 32 29 30 28 24 20 20 20 17 15 13 10 7 6
8 4 15 22 25 23 19 23 27 30 31 34 32 30 30 33 30 26 21 22 21 20 18 19 16 11 17 22 27 28 27 26 23 20 17 16 16 13 10 8 6 4 4
6 5 14 21 20 16 18 21 23 26 30 28 25 29 33 36 29 30 21 24 23 21 18 19 15 7 11 13 16 19 19 16 13 11 10 9 8 7 5 6 6 12 12
5 8 14 16 18 13 18 21 23 26 25 23 22 27 32 33 24 30 28 27 26 25 17 14 12 11 9 11 11 14 15 14 10 6 5 5 8 9 11 15 16 12 10
6 10 14 13 12 12 17 22 22 24 22 21 24 31 32 34 29 27 29 25 28 25 18 16 13 11 11 10 9 11 14 17 19 20 21 19 18 18 20 17 13 11 10
8 8 11 13 9 12 17 18 18 17 17 20 25 32 34 35 26 27 26 26 29 31 29 24 19 14 10 9 12 14 16 19 21 22 24 25 26 24 21 18 16 16 15
9 8 11 11 6 11 17 17 13 12 15 21 23 30 34 37 28 24 27 29 33 35 35 36 33 29 20 14 13 17 19 22 24 26 26 24 23 20 18 17 15 15 13
8 9 10 8 6 11 15 13 6 9 12 17 20 25 29 30 31 28 23 22 27 28 29 30 30 29 27 27 25 24 23 21 18 18 19 20 19 17 16 17 16 14 14
8 7 8 5 7 10 11 10 4 9 10 13 18 19 23 24 24 22 20 16 19 21 21 25 26 26 25 24 22 21 20 19 18 18 20 21 20 19 14 15 16 19 16
9 8 5 5 7 11 10 8 3 7 8 11 15 21 22 21 19 18 16 16 18 16 14 17 21 24 22 18 16 15 14 13 13 12 11 11 11 12 12 14 15 17 20
9 8 7 6 8 13 13 8 5 5 4 7 11 17 22 22 21 17 17 18 17 12 9 8 9 10 10 14 12 9 11 13 12 11 11 15 11 13 14 17 19 24 26
12 12 11 12 11 13 16 9 7 6 4 3 8 17 22 23 22 19 21 16 16 14 13 12 11 8 6 5 7 5 9 12 16 19 7 14 17 14 15 17 24 21 15
18 17 16 15 14 15 16 13 9 8 7 5 5 13 24 25 32 27 17 15 19 21 19 19 16 15 11 9 7 3 7 14 10 10 15 16 16 14 19 24 22 19 17
23 22 19 17 15 18 16 16 13 11 9 7 8 7 20 24 27 32 24 16 18 23 21 14 18 18 17 16 15 13 13 12 14 13 17 17 15 19 24 22 20 21 19
24 22 22 21 17 17 16 15 17 14 11 11 12 11 17 21 28 34 34 18 16 19 23 20 13 10 10 11 14 16 17 17 17 17 16 18 19 20 22 21 18 19 21
23 24 24 25 22 20 18 18 20 19 15 13 12 14 18 19 25 31 34 25 18 17 17 19 17 8 7 12 10 8 10 13 15 15 18 18 18 16 15 16 18 21 23
28 28 27 29 27 27 23 23 24 26 20 21 18 18 21 22 26 33 34 26 19 18 18 18 18 15 12 11 10 11 11 12 13 16 17 18 18 15 16 16 17 19 25
Wind_Direction_850mb
202 266 305 310 308 310 310 310 320 330 334 336 339 344 345 342 340 332 325 313 305 302 297 291 288 289 293 294 298 296 298 289 274 273 268 259 262 257 240 219 214 206 201
247 293 295 323 323 315 321 334 339 340 343 348 349 345 347 348 345 342 336 317 305 296 295 296 304 296 300 291 295 294 295 292 281 256 253 239 226 217 210 207 204 194 180
245 292 321 327 332 338 346 348 345 348 356 355 352 353 352 353 349 346 343 340 330 313 305 293 291 300 300 297 288 291 286 287 286 261 241 242 224 172 187 197 183 176 174
171 276 337 352 2 357 351 346 346 355 359 357 357 354 353 351 353 348 350 350 345 334 318 310 293 280 299 307 293 288 286 289 293 265 254 246 252 203 161 160 165 172 185
187 317 12 6 357 348 346 349 356 1 357 359 359 358 355 348 352 359 1 9 18 360 347 329 313 292 295 299 313 309 291 288 287 266 260 231 223 212 180 162 168 181 191
255 311 350 356 347 346 351 358 4 356 355 359 1 1 0 359 359 10 19 17 19 17 19 22 37 25 341 340 325 316 303 278 286 263 202 192 191 145 167 166 172 176 192
228 309 356 347 346 348 356 3 359 358 0 3 4 2 3 6 7 15 35 24 22 29 26 29 48 13 5 329 4 9 338 283 260 202 134 125 146 188 116 156 173 171 197
125 89 350 350 346 351 1 358 356 358 360 0 4 9 10 11 10 29 23 21 18 19 23 24 25 36 41 36 49 40 355 178 106 83 94 110 112 128 152 166 166 171 181
151 282 351 344 348 351 355 358 358 357 356 359 359 7 9 7 11 9 10 4 1 10 11 23 33 33 36 45 51 53 85 97 109 112 102 99 100 104 114 130 155 176 181
176 13 346 350 353 352 352 354 355 357 6 358 353 353 358 4 2 3 5 1 6 10 13 13 16 31 44 38 63 75 80 87 87 85 86 92 96 100 109 119 131 151 168
174 348 348 350 352 350 353 351 355 360 4 355 5 14 11 9 8 6 12 17 14 8 7 11 13 35 56 67 59 75 77 77 78 79 76 79 81 81 84 91 98 105 111
177 326 349 344 349 354 358 357 359 3 358 7 19 19 14 13 20 25 24 17 10 3 2 4 21 69 64 63 73 62 57 55 58 60 56 56 50 44 67 90 82 101 108
216 313 340 349 342 351 355 354 352 358 357 3 13 19 15 9 14 35 33 30 18 10 15 27 54 73 80 73 60 46 36 33 31 35 33 52 67 78 94 109 103 83 84
254 316 340 344 342 354 350 351 353 357 4 22 21 14 10 4 19 27 31 25 15 23 32 46 58 67 74 71 67 53 48 58 71 77 83 88 87 92 109 99 77 73 75
281 302 327 333 334 347 352 354 357 14 27 26 20 20 18 18 27 33 33 31 36 46 54 58 57 61 67 74 80 63 68 72 77 79 82 81 81 83 88 89 78 68 58
293 307 319 324 322 340 352 356 10 32 29 25 22 16 25 25 35 40 37 48 55 53 54 59 61 62 67 79 83 86 83 80 80 82 81 80 77 76 73 67 56 40 25
314 305 313 309 306 328 343 355 20 18 17 31 13 24 23 27 33 44 49 60 46 48 46 49 52 54 60 71 81 85 84 80 78 78 77 73 62 60 53 40 34 28 11
326 318 317 304 315 331 342 341 350 357 2 20 23 18 15 17 22 30 38 34 28 34 48 48 56 62 65 71 77 80 80 78 74 71 65 53 39 33 17 24 22 9 5
331 342 337 325 325 334 330 332 297 347 13 23 31 24 21 11 4 15 15 9 21 29 38 52 55 61 62 62 67 69 65 61 72 70 65 39 24 6 357 350 350 357 351
310 319 308 325 326 324 318 309 271 317 359 24 32 19 14 21 17 356 354 350 356 2 4 6 17 27 36 43 48 54 53 43 12 348 351 337 327 327 327 331 338 339 335
304 298 294 297 297 306 317 282 258 284 285 329 8 1 359 5 359 2 13 349 336 326 318 311 320 324 327 343 358 25 28 6 353 25 356 353 352 345 341 339 338 346 359
294 293 283 298 287 297 303 252 245 271 276 271 323 353 343 358 348 347 331 341 351 345 299 284 284 293 293 295 305 280 319 344 350 1 356 351 348 339 337 341 348 351 342
287 289 281 287 293 297 289 251 227 245 268 258 283 311 325 330 340 347 347 327 331 343 351 311 283 280 284 284 276 263 261 301 320 317 334 336 325 332 337 338 340 347 352
296 286 276 287 286 295 287 240 226 237 257 265 281 290 302 318 323 333 344 329 327 332 352 352 322 302 310 311 292 273 271 279 290 298 306 318 315 324 333 335 329 340 348
302 286 277 279 285 285 278 247 238 237 255 272 259 285 302 312 319 325 323 325 316 321 327 348 352 335 336 340 336 321 285 286 285 289 304 307 311 315 328 336 331 333 338
297 290 280 275 281 284 274 251 245 243 255 256 265 278 302 300 308 320 329 324 309 310 312 317 332 329 310 302 313 317 312 301 295 295 297 298 306 310 322 330 329 329 329